Location: Bulze?ti de Jos
(46.2500°N, 22.7500°E)
Time: 02:36:09
(UTC+00:00)

Daily predictions for brighter satellites

Satellite Brightness Start Highest point End
(mag) Time Altitude Azimuth Time Altitude Azimuth Time Altitude Azimuth
USA 215 4.5 01:52:18 10° E 01:56:40 34° NE 01:56:40 34° NE
Cosmos 2344 3.5 02:34:23 68° N 02:34:23 68° N 02:41:19 10° NE
CENTAUR R/B 2.8 02:43:37 60° NNE 02:43:37 60° NNE 02:49:27 10° NE
Meteor 2-3 Rocket 4.4 02:44:44 47° NE 02:44:44 47° NE 02:48:57 10° NNE
Cosmos 1634 Rocket 4.5 02:45:47 15° N 02:50:59 57° ENE 02:57:06 10° SSE
NOSS 3-2 (A) 4.0 03:00:36 44° N 03:00:36 44° N 03:05:36 10° NE
Meteor 1-26 Rocket 4.2 03:00:52 84° E 03:00:52 84° E 03:06:36 10° SSE
Tsikada Rocket 3.8 02:56:31 10° S 03:02:43 89° W 03:09:04 10° N
Cosmos 2369 Rocket 2.4 03:05:39 38° S 03:07:43 66° ESE 03:13:17 10° NNE
NOSS 3-2 (C) 3.2 03:08:14 74° NNW 03:08:14 74° NNW 03:14:27 10° NE
Meteor 1-31 Rocket 4.4 03:16:03 10° NNE 03:19:40 35° E 03:23:16 10° SSE
Cosmos 1656 Rocket 4.1 03:14:37 10° S 03:19:54 59° ESE 03:25:16 10° NNE
SJ 16-02 4.5 03:17:59 10° SE 03:20:23 15° E 03:22:45 10° ENE
Envisat 3.6 03:16:21 10° NNE 03:21:22 56° E 03:26:21 10° S
H-2A R/B 4.2 03:20:27 10° NNE 03:25:44 29° SSE 03:27:47 10° S
Cosmos 968 Rocket 3.8 03:26:16 50° N 03:26:16 50° N 03:30:14 10° NNE
Cosmos 2098 Rocket 3.2 03:25:20 10° S 03:29:17 73° E 03:34:24 10° NNE
Cosmos 1943 Rocket 2.9 03:30:59 36° NNW 03:30:59 36° NNW 03:34:58 10° NNE
CZ-2C R/B 2.8 03:25:12 10° SSE 03:30:39 75° ENE 03:35:13 15° N
SKYMED 2 3.6 03:30:23 10° SSE 03:34:43 77° ENE 03:36:10 41° N
Cosmos 1862 3.6 03:31:35 10° S 03:35:29 66° E 03:39:24 10° NNE
Meteor 2-13 Rocket 4.3 03:29:44 10° SSW 03:35:49 76° W 03:41:56 10° N
USA 238 DEB 3.7 03:34:56 47° WNW 03:36:05 52° NW 03:42:51 10° NE
USA 238 3.7 03:35:01 47° WNW 03:36:12 52° NW 03:42:57 10° NE
Cosmos 921 Rocket 3.9 03:39:09 36° SSW 03:39:09 36° SSW 03:42:02 10° S
SL-8 R/B 3.5 03:37:29 71° W 03:37:59 83° SSW 03:42:46 10° ESE
USA 215 3.3 03:34:14 10° ESE 03:40:45 75° NNE 03:44:01 32° NW
MOS 1-B Rocket 3.9 03:37:11 10° S 03:43:23 65° WSW 03:46:59 24° NNW
CBERS 1 LM4 rocket 4.5 03:43:24 10° NNE 03:48:18 79° ESE 03:53:21 10° SSW
SJ-12 3.8 03:46:53 10° N 03:51:02 73° WNW 03:55:09 10° SSW
H-2A R/B 4.0 03:47:22 10° SE 03:51:02 28° ENE 03:54:48 10° N
FALCON 9 DEB 4.4 03:52:09 29° NNE 03:52:09 29° NNE 03:54:29 10° NE
DNEPR-1 R/B 3.9 03:50:37 44° NW 03:52:08 70° SW 03:57:49 10° SSE
Cosmos 1151 Rocket 3.0 03:51:51 51° NW 03:52:37 61° W 03:56:55 10° S
Cosmos 1354 Rocket 4.3 03:48:16 10° S 03:53:29 69° ESE 03:58:47 10° NNE
SL-19 R/B 4.4 03:48:29 10° S 03:53:55 52° WSW 03:56:43 28° NW
Okean 3 Rocket 3.5 03:52:27 10° SSW 03:56:59 79° W 04:01:34 10° N
BREEZE-M DEB (TANK) 4.0 03:59:20 31° WSW 04:01:19 44° SSW 04:15:26 10° SE
ADEOS 4.0 03:56:18 10° NNE 04:01:32 65° ESE 04:06:42 10° S
CZ-4B R/B 4.4 04:00:12 10° NNE 04:03:28 33° E 04:06:45 10° SSE
Cosmos 1766 Rocket 3.5 03:59:16 10° SSW 04:03:33 59° WNW 04:07:50 10° N
Meteor 1-27 Rocket 4.2 03:59:41 10° N 04:05:18 62° ENE 04:10:59 10° SSE
CZ-4B R/B 4.2 04:04:29 10° ESE 04:06:36 16° ENE 04:08:43 10° NNE
Cosmos 1328 Rocket 3.6 04:08:49 22° NNW 04:11:27 54° W 04:15:40 10° S
BREEZE M DEB (TANK) 2.8 04:12:18 37° NW 04:13:11 48° N 04:15:25 10° ENE
CZ-2C R/B 3.5 04:11:55 10° NNE 04:16:46 62° E 04:21:49 10° S
ATLAS 5 CENTAUR R/B 2.6 04:13:36 10° SSW 04:17:13 43° ESE 04:21:13 10° NE
Meteor 2-6 Rocket 4.3 04:13:32 11° NNW 04:18:31 48° W 04:23:39 10° SSW
Cosmos 2279 Rocket 4.1 04:12:34 10° NNW 04:18:32 51° W 04:24:29 10° SSW
COSMO-SKYMED 1 3.2 04:18:56 10° SSW 04:22:53 34° W 04:24:46 23° NW
Meteor 2-15 Rocket 4.4 04:18:29 10° N 04:24:35 86° W 04:30:39 10° S
Cosmos 1340 Rocket 3.4 04:21:45 10° S 04:25:37 58° E 04:29:34 10° NNE
Nadezhda 4 Rocket 4.0 04:22:42 10° S 04:28:53 89° W 04:35:10 10° N
CZ-4C R/B 3.2 04:26:35 10° S 04:29:32 39° W 04:30:39 28° NW
Meteor PRIRODA 3.5 04:27:39 10° NNE 04:31:18 88° E 04:34:56 10° SSW
H-2A R/B 4.4 04:27:25 10° NE 04:31:26 25° E 04:35:27 10° SSE
CENTAUR R/B 3.7 04:30:49 19° WNW 04:34:10 28° NNW 04:40:32 10° NE
Cosmos 1503 Rocket 4.2 04:29:15 10° SW 04:34:20 48° WNW 04:39:32 10° NNE
Cosmos 1515 4.2 04:32:33 10° N 04:36:19 60° ENE 04:40:05 10° SSE
Cosmos 1408 Rocket 3.5 04:32:48 10° SSW 04:37:01 55° WNW 04:41:16 10° N
COSMOS 2487 3.1 04:33:57 10° N 04:37:14 50° ENE 04:40:30 10° SE
Cosmos 1939 Rocket 3.1 04:36:47 10° NNE 04:40:43 69° ESE 04:44:34 10° S
USA 32 4.2 04:36:07 10° N 04:41:24 78° E 04:46:38 10° S
Cosmos 2228 Rocket 3.6 04:37:52 10° N 04:42:20 65° E 04:46:50 10° SSE
Cosmos 1777 Rocket 3.9 04:37:56 10° SSW 04:43:09 82° WNW 04:48:26 10° NNE
Cosmos 1092 Rocket 4.3 04:39:07 10° S 04:45:20 74° E 04:51:39 10° NNE
Cosmos 1743 Rocket 3.5 04:41:33 10° S 04:45:55 83° W 04:50:19 10° N
Cosmos 2297 Rocket 3.5 04:42:13 10° NNW 04:47:28 37° NE 04:52:41 10° ESE
Cosmos 773 Rocket 4.2 04:42:53 10° NNW 04:47:55 48° WSW 04:52:51 10° S
DMSP B5D2-2 4.2 04:44:36 10° S 04:49:42 55° W 04:54:50 10° NNW
Cosmos 2369 Rocket 3.2 04:47:45 10° W 04:52:14 24° NW 04:56:47 10° N
Meteor 1-31 Rocket 4.0 04:50:53 10° NNW 04:53:49 21° WNW 04:56:46 10° WSW
Cosmos 1515 Rocket 4.1 04:50:07 10° NNW 04:54:06 35° W 04:58:01 10° SSW
NOAA 6 4.3 04:51:29 10° NNE 04:56:37 73° ESE 05:01:44 10° S
H-2A R/B 4.4 04:55:56 10° NNW 05:00:49 - WSW 04:57:29 13° WNW
SMAP 3.2 04:53:24 10° NNE 04:58:06 84° ESE 05:02:45 10° SSW
SJ 16-02 1.3 04:54:05 10° SSW 04:58:24 60° WNW 05:02:46 10° NNE
BREEZE-M DEB (TANK) 3.1 04:48:29 10° WSW 04:58:45 81° SSE 05:01:50 10° ENE
Okean 1 3.8 04:55:45 10° N 04:59:41 62° E 05:03:35 10° SSE
Envisat 4.1 04:56:11 10° NNW 05:00:00 22° WNW 05:03:48 10° WSW
SL-27 R/B 3.5 04:58:52 12° NW 05:01:42 28° WSW 05:04:44 10° SSW
ATLAS 3B R/B 2.7 04:55:47 10° SW 05:02:19 86° SE 05:09:12 10° NE
FengYun 1-2 T 4.2 05:00:25 10° NNE 05:05:55 78° WNW 05:11:23 10° SSW
AQUARIUS 4.2 05:02:49 10° NNE 05:07:20 89° E 05:11:50 10° SSW
CZ-2D R/B 3.6 05:06:00 10° NNE 05:09:47 69° E 05:13:33 10° S
Cosmos 2263 Rocket 4.5 05:08:09 10° N 05:10:33 13° NE 05:12:57 10° ENE
CZ-2C R/B 4.1 05:08:06 10° SW 05:11:29 17° W 05:14:52 10° NW
Cosmos 1500 Rocket 4.0 05:09:57 10° SW 05:14:10 40° WNW 05:18:25 10° N
Cosmos 158 Rocket 4.1 05:09:07 10° NNW 05:14:12 63° WSW 05:19:23 10° S
Cosmos 1943 Rocket 4.0 05:13:39 10° NW 05:14:56 11° NNW 05:16:13 10° NNW
Alouette 2 Rocket 3.7 05:12:19 10° NNW 05:15:50 39° W 05:19:12 10° SSW
FALCON 9 DEB 4.3 05:13:45 10° NW 05:16:09 23° N 05:18:32 10° ENE
Cosmos 1174 3.5 05:14:38 10° WSW 05:17:27 39° NW 05:20:28 10° NNE
FALCON 9 DEB 4.2 05:17:42 10° NW 05:20:10 25° NNE 05:22:37 10° ENE
FALCON 9 DEB 4.1 05:18:31 10° NW 05:21:01 26° NNE 05:23:30 10° ENE
NOAA 12 4.4 05:17:41 10° N 05:22:42 45° WNW 05:27:39 10° SW
Sich 1 3.0 05:18:28 10° SSW 05:22:43 69° W 05:27:00 10° N
CORIOLIS 4.2 05:17:35 10° NNE 05:23:04 77° WNW 05:28:29 10° SSW
Cosmos 2227 Rocket 3.1 05:17:44 10° NNW 05:23:14 48° ENE 05:28:39 10° SE
USA 215 4.0 05:18:08 10° SSE 05:24:06 37° SW 05:30:06 10° WNW
Meteor 1-19 Rocket 4.2 05:18:51 10° NNW 05:24:27 71° W 05:29:51 10° S
Meteor 1-20 Rocket 4.3 05:19:25 10° SSW 05:24:53 57° WNW 05:30:31 10° N
Cosmos 1707 Rocket 3.7 05:21:37 10° N 05:26:05 89° E 05:30:32 10° S
Cosmos 1805 Rocket 3.7 05:21:51 10° SSW 05:26:07 50° WNW 05:30:23 10° N
